{"data":{"norad_id":68876,"epoch":"2026-09-19T23:58:20.981280Z","epoch_age_seconds":58679,"freshness":"FRESH","line1":"1 68876U 26095N   26262.99885395  .00001936  00000+0  28290-3 0  9993","line2":"2 68876  51.9040 171.4207 0000887  91.2902 268.8162 14.79931626 21930","mean_motion":14.79931626,"eccentricity":8.87e-5,"inclination_deg":51.904,"raan_deg":171.4207,"arg_perigee_deg":91.2902,"mean_anomaly_deg":268.8162,"bstar":0.0002829,"rev_number":2193,"period_min":97.301792508622,"perigee_km":628.91838560894,"apogee_km":630.16154750281,"semimajor_km":7007.6769665559,"source":"CELESTRAK","updated_at":"2026-09-20T09:00:24.535135Z"}}